CW4498 Weather Reports


time (UTC)temp
C
wind
direction
speed
KPH
gust
KPH
rain 1hr
cm
rain 24hr
cm
rain mn
cm
humidity
%
barometer
mb
20260904134556 22 107 0.0 4.8 0.00 0.00 0.00 31 1015.8
20260904133106 22 267 4.8 14.5 0.00 0.00 0.00 31 1015.5
20260904131555 21 275 6.4 19.3 0.00 0.00 0.00 32 1015.2
20260904130046 21 302 4.8 14.5 0.00 0.00 0.00 32 1015.1
20260904124545 21 294 6.4 17.7 0.00 0.00 0.00 32 1015.0
20260904123045 21 285 8.0 20.9 0.00 0.00 0.00 30 1014.7
20260904121544 21 271 9.7 27.4 0.00 0.00 0.00 30 1014.6
20260904120045 21 215 8.0 24.1 0.00 0.00 0.00 31 1014.4
20260904114541 21 224 1.6 17.7 0.00 0.00 0.00 31 1014.4
20260904113040 20 260 3.2 14.5 0.00 0.00 0.00 31 1014.4
20260904111536 20 142 3.2 11.3 0.00 0.00 0.00 32 1014.3
20260904110033 18 294 3.2 8.0 0.00 0.00 0.00 42 1014.3
20260904104532 18 159 0.0 6.4 0.00 0.00 0.00 46 1014.1
20260904103032 17 276 1.6 4.8 0.00 0.00 0.00 50 1013.9
20260904101531 17 277 1.6 3.2 0.00 0.00 0.00 51 1013.9
20260904100031 16 279 1.6 4.8 0.00 0.00 0.00 51 1013.7
20260904094530 16 272 0.0 4.8 0.00 0.00 0.00 52 1013.6
20260904093030 16 211 0.0 6.4 0.00 0.00 0.00 51 1013.4
20260904091528 16 114 0.0 3.2 0.00 0.00 0.00 53 1013.2
20260904090026 16 271 0.0 3.2 0.00 0.00 0.00 52 1013.3
20260904084526 16 271 0.0 1.6 0.00 0.00 0.00 52 1013.4
20260904083024 16 271 0.0 3.2 0.00 0.00 0.00 52 1013.4
20260904081522 17 271 0.0 3.2 0.00 0.00 0.00 51 1013.4
20260904080025 17 271 0.0 1.6 0.00 0.00 0.00 48 1013.5
20260904074526 17 271 0.0 3.2 0.00 0.00 0.00 48 1013.5
20260904073016 17 271 0.0 1.6 0.00 0.00 0.00 48 1013.6
20260904071515 17 271 0.0 1.6 0.00 0.00 0.00 49 1013.6
20260904070014 17 271 0.0 1.6 0.00 0.00 0.00 48 1013.9
20260904064510 18 271 0.0 3.2 0.00 0.00 0.00 46 1014.0
20260904063014 18 271 0.0 3.2 0.00 0.00 0.00 46 1014.1
20260904061518 18 221 0.0 1.6 0.00 0.00 0.00 45 1014.1
20260904060008 19 221 0.0 1.6 0.00 0.00 0.00 44 1014.3
20260904054509 20 121 0.0 4.8 0.00 0.00 0.00 42 1014.4
20260904053005 20 112 0.0 4.8 0.00 0.00 0.00 41 1014.4
20260904051511 20 273 0.0 6.4 0.00 0.00 0.00 40 1014.7
20260904050002 20 238 0.0 1.6 0.00 0.00 0.00 39 1014.8
20260904044501 20 239 0.0 1.6 0.00 0.00 0.00 37 1014.9
20260904043103 21 167 0.0 3.2 0.00 0.00 0.00 36 1015.0
20260904043003 21 167 0.0 3.2 0.00 0.00 0.00 35 1015.0
20260904041612 21 100 0.0 6.4 0.00 0.00 0.00 33 1015.2
20260904034608 22 93 1.6 4.8 0.00 0.00 0.00 28 1015.1
20260904033100 22 123 0.0 4.8 0.00 0.00 0.00 27 1014.8
20260904031558 22 116 1.6 4.8 0.00 0.00 0.00 26 1014.5
20260904030058 23 256 3.2 8.0 0.00 0.00 0.00 25 1014.4
20260904024557 22 291 0.0 8.0 0.00 0.00 0.00 25 1014.3
20260904023057 22 180 0.0 6.4 0.00 0.00 0.00 25 1013.9
20260904021556 23 149 1.6 4.8 0.00 0.00 0.00 24 1013.7
20260904020056 23 245 0.0 3.2 0.00 0.00 0.00 24 1013.6
20260904014611 23 188 0.0 4.8 0.00 0.00 0.00 25 1013.4
20260904013057 23 148 0.0 4.8 0.00 0.00 0.00 24 1013.2
20260904011606 24 113 0.0 3.2 0.00 0.00 0.00 24 1013.1
20260904010054 25 136 1.6 11.3 0.00 0.00 0.00 23 1013.0
20260904004554 26 119 3.2 11.3 0.00 0.00 0.00 22 1013.0
20260904003053 27 132 4.8 14.5 0.00 0.00 0.00 20 1012.9
20260904001553 28 194 1.6 9.7 0.00 0.00 0.00 19 1013.0
20260904000057 28 233 3.2 11.3 0.00 0.00 0.00 18 1013.0
20260903234551 29 108 3.2 11.3 0.00 0.00 0.00 17 1013.1
20260903233051 29 268 3.2 11.3 0.00 0.00 0.00 17 1013.0
20260903231602 29 196 3.2 12.9 0.00 0.00 0.00 17 1013.1
20260903230048 29 137 4.8 12.9 0.00 0.00 0.00 17 1013.2
20260903224548 28 109 8.0 17.7 0.00 0.00 0.00 19 1013.1
20260903223057 28 142 0.0 6.4 0.00 0.00 0.00 21 1013.2
20260903221547 27 121 6.4 20.9 0.00 0.00 0.00 21 1013.4
20260903220101 27 128 8.0 16.1 0.00 0.00 0.00 21 1013.4
20260903214546 27 137 3.2 9.7 0.00 0.00 0.00 20 1013.7
20260903213045 28 120 8.0 16.1 0.00 0.00 0.00 18 1013.7
20260903211545 29 123 4.8 14.5 0.00 0.00 0.00 18 1013.7
20260903210043 29 115 4.8 16.1 0.00 0.00 0.00 17 1013.9
20260903204541 28 115 6.4 17.7 0.00 0.00 0.00 18 1014.2
20260903203040 28 119 1.6 8.0 0.00 0.00 0.00 19 1014.4
20260903201540 28 71 4.8 16.1 0.00 0.00 0.00 19 1014.4
20260903200046 28 165 6.4 14.5 0.00 0.00 0.00 19 1014.6
20260903194546 27 96 0.0 11.3 0.00 0.00 0.00 21 1014.7
20260903193038 27 123 6.4 12.9 0.00 0.00 0.00 20 1015.0
20260903191553 27 122 3.2 12.9 0.00 0.00 0.00 21 1015.0
20260903190038 28 83 4.8 12.9 0.00 0.00 0.00 19 1015.1
20260903184535 27 123 3.2 12.9 0.00 0.00 0.00 21 1015.3
20260903183049 27 132 1.6 12.9 0.00 0.00 0.00 22 1015.6
20260903181532 27 101 0.0 8.0 0.00 0.00 0.00 23 1015.7
20260903180036 27 123 1.6 4.8 0.00 0.00 0.00 24 1016.0
20260903174531 27 113 1.6 14.5 0.00 0.00 0.00 23 1016.2
20260903173030 27 133 0.0 6.4 0.00 0.00 0.00 24 1016.2
20260903171528 26 260 1.6 6.4 0.00 0.00 0.00 25 1016.3
20260903170025 25 122 3.2 9.7 0.00 0.00 0.00 27 1016.3
20260903164524 25 104 3.2 9.7 0.00 0.00 0.00 27 1016.4
20260903163021 24 128 4.8 11.3 0.00 0.00 0.00 28 1016.4
20260903161531 24 105 1.6 12.9 0.00 0.00 0.00 28 1016.5
20260903160022 24 119 3.2 9.7 0.00 0.00 0.00 28 1016.5
20260903154517 23 90 3.2 11.3 0.00 0.00 0.00 30 1016.6
20260903153015 23 109 4.8 9.7 0.00 0.00 0.00 30 1016.6
20260903151515 22 113 1.6 9.7 0.00 0.00 0.00 31 1016.7
20260903150014 22 135 0.0 8.0 0.00 0.00 0.00 32 1016.8
20260903144512 21 105 1.6 9.7 0.00 0.00 0.00 34 1016.8
20260903143012 20 219 0.0 3.2 0.00 0.00 0.00 36 1016.7
20260903141511 19 120 0.0 3.2 0.00 0.00 0.00 38 1016.7
20260903140014 18 110 0.0 3.2 0.00 0.00 0.00 38 1016.6